SL-3 R/B, 11608

Orbit data source: Space-Track

SL-3 R/B, 11608 is space debris in LEO originally from a launch on Wed, 31 Oct 1979 UTC launched from the Plesetsk Missile And Space Complex (PKMTR). Debris objects in space refer to the collection of defunct objects orbiting the Earth. Examples of debris include non-operational satellites, rocket bodies, and fragments generated from explosions, collisions, or faulty payload assembly.

Loading next visibility...
Identifier
11608, 1979-095B
Orbit
LEO
Country
Flag of CISCIS
Related business
Manufacturer
Progress
Mission
Spacecraft
Bus & Motor
BLOK-E, Unknown motor
Mass
1,440 kg wet, 1,440 kg dry
Launch date (UTC)
1979-10-31 (47 years ago)
Launch vehicle
Unknown
Launch site
Plesetsk Missile And Space Complex (PKMTR)
Object type
Payload
Rocket body
Debris
Shape & HBR
Unknown
Radar Cross Section
Large (>1 m²)

Expand to show TLE details & history
Last TLE update: 2 days ago

TLE from 2 days ago
0 SL-3 R/B
1 11608U 79095B   26171.37647291 -.00000044  00000-0 -33411-4 0  9998
2 11608  81.2135 257.3390 0052263 277.8807  81.6431 14.06565833392260
Epoch: 2026-06-20T09:02Z
TLE epoch observation values (Epoch: 2026-06-20T09:02:07.259Z)
Latitude
-0.00006°
Longitude
-146.78324°
Altitude
868.727 km
Speed
7.421 km/s
True Right ascension
17h 09m 21s
True Declination
0° 00' 00"
Sunlit
Object was in full shadow at epoch
Visualization orbit readout
Latitude
Unknown
Longitude
Unknown
Altitude
Unknown
Speed
Unknown
Apparent Right ascension
Unknown
Apparent Declination
Unknown
Sunlit
N/A
Visualization observer readout
Local Sidereal Time
01:06:53
Azimuth
Unknown
Elevation
Unknown
Doppler factor
Unknown
Orbital elements
Apogee altitude
906.2 km
Perigee altitude
830.455 km
Semi-major axis
7,246.464 km
Eccentricity
0.00523
Inclination
81.2135°
RAAN
257.339°
Arg. of periapsis
277.8807°
True anomaly
82.23618°
Mean anomaly
81.6431°
Eccentric anomaly
81.93959°
Mean motion
3.51847 °/min
Orbital period
102.32 mins
BSTAR
-0.000033411
Loading maneuver chart data...
Computing Atmospheric mass density...

Documentation

Showing up to 5 results
|